Flag for United Kingdom Weather past 2 weeks in Rotherham, England, United Kingdom

Now
60 °F

Fog.


Feels Like: 60 °F
Forecast: 54 / 67 °F
Wind: 6 mph from Northwest

Location: Nottingham Weather Centre

Current Time: Jul 26, 2014 at 4:27:54 AM

Latest Report: Jul 26, 2014 at 3:00 AM


Visibility: 4 mi

Pressure: 30.07 "Hg

Humidity: 100%

Dew point: 60 °F

Location of RotherhamLocation

Historic Weather in Rotherham — Graph

°F

Rotherham temperature yesterday

Maximum temperature yesterday: 78 °F (at 4:00 PM)
Minimum temperature yesterday: 57 °F (at 5:00 AM)
Average temperature yesterday: 67 °F

Past Weeks' High & Low Weather Summary

 TemperatureHumidityPressure
High79 °F (Jul 24, 2:00 PM)100% (Jul 12, 3:00 AM)30.29 "Hg (Jul 12, 3:00 AM)
Low51 °F (Jul 14, 6:00 AM)42% (Jul 24, 3:00 PM)29.72 "Hg (Jul 13, 9:00 AM)
Average65 °F79%30.02 "Hg
* Reported Jul 11 3:00 AM — Jul 26 3:00 AM, Rotherham, Weather by CustomWeather, © 2014

Note: Actual official high and low records may vary slightly from our data, if they occured in-between our weather recording intervals... More about our weather records

Advertising

Rotherham weather history for previous 24 hours

 ConditionsComfort  
Time TempWeatherWind HumidityBarometerVisibility
3:00 AM
Jul 26
60 °FFog.6 mph100%30.07 "Hg4 mi
2:00 AM59 °FFog.2 mph100%30.09 "Hg4 mi
1:00 AM60 °FFog.2 mph100%30.09 "Hg5 mi
12:00 AM61 °FCool.2 mph97%30.09 "Hg6 mi
11:00 PM
Jul 25
63 °FMild.5 mph92%30.09 "Hg7 mi
10:00 PM65 °FMild.5 mph84%30.09 "Hg9 mi
9:00 PM68 °FMild.6 mph75%30.08 "Hg10 mi
8:00 PM71 °FMild.12 mph61%30.06 "Hg11 mi
7:00 PM74 °FMild.12 mph57%30.06 "Hg11 mi
6:00 PM76 °FMild.12 mph47%30.05 "Hg12 mi
5:00 PM78 °FWarm.12 mph46%30.05 "Hg12 mi
4:00 PM78 °FWarm.12 mph48%30.06 "Hg12 mi
3:00 PM78 °FWarm.12 mph49%30.06 "Hg13 mi
2:00 PM78 °FWarm.12 mph51%30.08 "Hg12 mi
1:00 PM75 °FMild.10 mph59%30.09 "Hg11 mi
12:00 PM73 °FMild.10 mph60%30.10 "Hg11 mi
11:00 AM72 °FMild.12 mph64%30.11 "Hg9 mi
10:00 AM68 °FMild.8 mph74%30.12 "Hg6 mi
9:00 AM64 °FSmoke.8 mph88%30.13 "Hg4 mi
8:00 AM62 °FFog.8 mph98%30.12 "Hg3 mi
7:00 AM59 °FFog.7 mph100%30.11 "Hg2 mi
6:00 AM58 °FFog.6 mph100%30.11 "Hg2 mi
5:00 AM57 °FFog.6 mph100%30.11 "Hg2 mi
4:00 AM58 °FFog.6 mph100%30.11 "Hg3 mi
Weather by CustomWeather, © 2014

See weather overviewHow to use our weather pages